ZACUBE-1 (TSHEPISOSAT)

Last updated on Thu Oct 30 2025 00:03:10 GMT+0000 (Coordinated Universal Time)

1 39417U 13066B 25302.39353981 .00008151 00000+0 67660-3 0 9995 2 39417 97.7979 258.9147 0041410 299.8147 59.8961 14.98368973646136
UTC large
Height (km)
Speed (km/s)
/
Latitude / Longitude
Inclination (degrees)
Orbital Period (minutes)
Azimuth
Elevation
Range (km)
Doppler Factor

Next 0 passes for location: London (51.5072 / 0.1276)

Sorry there are no passes over London.